[[{"header":{"parameterUnit":"m.s-1","parameterCategory":1,"la1":30.2991,"la2":30.254,"lo1":-89.0895,"lo2":-89.0444,"dy":0.0017,"dx":0.0017,"nx":28,"ny":28,"refTime":"2026-01-31T09:00:00:Z","depth":0,"parameterNumber":2,"parameterNumberName":"U-component_of_WINDS"},"data":[0,0,0,0,0,0,0,0,0,0,0,0,0,0,0,0,0,0,0,0,0,0,0,0,0,0,0,0,0,0,0,0,0,0,0,0,0,0,0,0,0,0,0,0,0,0,0,0,0,0,0,0,0,0,0,0,0,0,3.6436,3.6437,0,3.6463,3.6464,3.6464,3.6413,3.6412,3.641,3.6408,3.6434,3.6436,3.6438,0,0,0,0,0,0,0,0,0,0,0,0,0,3.634,3.6342,3.6436,3.6437,3.6437,3.6463,3.6464,3.6464,3.6414,3.6412,3.6409,3.6408,3.6433,3.6436,3.6438,0,0,0,0,0,0,0,0,0,0,0,0,0,3.6376,3.6343,3.6436,3.6415,3.6414,3.6463,3.6464,3.6464,3.6414,3.6411,3.6409,3.6407,3.6432,3.6435,3.6439,3.651,0,0,3.6449,3.645,0,0,0,0,0,0,0,0,3.6374,3.638,3.6418,3.6417,3.6415,3.6432,3.6439,3.6479,3.6415,3.6414,3.6408,3.6405,3.6435,3.6438,3.6449,3.6511,3.6512,3.6449,3.6451,3.6453,3.6454,0,0,0,0,0,0,0,3.6372,3.6378,3.6447,3.6419,3.6417,3.6404,3.6406,3.6447,3.6438,3.6414,3.641,3.6414,3.6434,3.6446,3.6449,3.6512,3.6449,3.6452,3.6454,3.6456,3.6636,3.6638,0,0,0,0,0,0,3.6372,3.6376,3.6446,3.6448,3.6388,3.6408,3.641,3.6429,3.6438,3.6437,3.6416,3.6412,3.6441,3.6445,3.645,3.6534,3.6453,3.6456,3.6458,3.6633,3.6636,3.6639,0,0,0,0,0,0,3.637,3.6379,3.6445,3.6411,3.6419,3.6412,3.6434,3.6431,3.6443,3.644,3.6438,3.643,3.6439,3.6445,3.6496,3.6534,3.6457,3.6461,3.663,3.6634,3.6638,3.6703,0,0,0,0,0,0,3.6368,3.6378,3.6405,3.6412,3.6421,3.6491,3.6436,3.6434,3.6449,3.6443,3.6452,3.6451,3.6438,3.6491,3.6499,3.6537,3.6463,3.6626,3.6632,3.6637,3.6697,3.6709,3.6719,0,0,0,0,0,3.6364,3.6422,3.6407,3.6416,3.6454,3.6493,3.6498,3.6483,3.6452,3.6479,3.6478,3.645,3.6529,3.6497,3.6505,3.6545,3.6624,3.663,3.6636,3.6693,3.6707,3.6718,0,0,0,0,0,0,3.6418,3.6422,3.6406,3.6467,3.6481,3.6485,3.6518,3.6498,3.6519,3.6513,3.6492,3.6495,3.655,3.6552,3.6516,3.6615,3.6571,3.6579,3.6611,3.6624,3.6635,3.6633,3.6466,0,0,0,0,0,3.6438,3.647,3.6471,3.6525,3.6533,3.6525,3.6541,3.6528,3.6541,3.6546,3.6548,3.656,3.6588,3.6606,3.6631,3.6698,3.6699,3.673,3.674,3.6749,3.6756,3.6793,3.6806,3.666,3.666,3.666,0,0,3.6477,3.6484,3.6505,3.6536,3.6545,3.6578,3.653,3.6566,3.6591,3.6551,3.6599,3.6602,3.6614,3.6674,3.67,3.6678,3.6797,3.6757,3.6764,3.6767,3.68,3.6814,3.6827,3.6664,3.6663,3.6663,0,0,3.6567,3.6575,3.6621,3.6632,3.6646,3.664,3.6652,3.666,3.666,3.6708,3.668,3.6708,3.6756,3.6767,3.6778,3.6874,3.685,3.6883,3.6938,3.6974,3.6986,3.6996,3.703,3.7043,3.689,3.6891,3.6891,0,3.6614,3.6664,3.6647,3.6687,3.6702,3.6669,3.6716,3.6727,3.6748,3.6759,3.6734,3.6795,3.6801,3.6863,3.6886,3.6897,3.6909,3.6881,3.6985,3.6995,3.7005,3.7037,3.705,3.6894,3.6894,3.6894,3.6893,0,3.6721,3.6756,3.6792,3.6815,3.6834,3.6877,3.6868,3.6889,3.6875,3.6872,3.6923,3.6929,3.6956,3.697,3.6956,3.703,3.7016,3.6989,3.6944,3.7023,3.7053,3.7065,3.69,3.6899,3.6897,3.6896,0,0,3.6844,3.6859,3.6872,3.6883,3.6898,3.6924,3.6966,3.6993,3.7012,3.7028,3.7063,3.7105,3.7081,3.7094,3.7081,3.7113,3.7189,3.7082,3.7082,3.7102,3.7272,3.7292,3.7307,3.7174,3.7176,3.7178,3.7271,0,3.6933,3.7006,3.6993,3.7064,3.7096,3.7067,3.7103,3.7116,3.7115,3.7142,3.7141,3.7171,3.7136,3.7144,3.7174,3.7174,3.7223,3.7167,3.7205,3.7207,3.7203,3.7323,3.7344,3.7431,3.7283,3.7284,3.7286,0,3.7046,3.7068,3.7142,3.7153,3.7166,3.72,3.7224,3.725,3.7265,3.7262,3.7278,3.726,3.7302,3.7258,3.7315,3.7277,3.7293,3.7295,3.7298,3.73,3.7251,3.7328,3.7458,3.7471,3.7304,3.7303,3.7302,0,3.7128,3.7177,3.7228,3.7238,3.7251,3.7276,3.7282,3.7294,3.7312,3.7333,3.7344,3.737,3.7384,3.7404,3.7394,3.7362,3.7454,3.7408,3.7452,3.7453,3.7472,3.7471,3.7606,3.7483,3.7483,3.7482,3.7482,0,3.7228,3.7275,3.7265,3.7296,3.7348,3.7334,3.7385,3.7388,3.7399,3.7431,3.7406,3.7436,3.7421,3.745,3.7442,3.7491,3.7498,3.7496,3.7494,3.7498,3.7499,3.7508,3.7501,3.7486,3.7485,3.7484,3.7484,0,3.7328,3.7323,3.7377,3.7387,3.739,3.7428,3.7436,3.7465,3.7463,3.7503,3.7512,3.7509,3.7541,3.7533,3.7569,3.7564,3.7626,3.7615,3.7621,3.7619,3.7663,3.7659,3.7809,3.7828,3.7692,3.7694,3.7695,0,3.7392,3.7428,3.7442,3.7462,3.7471,3.7503,3.7521,3.7509,3.7529,3.7549,3.7576,3.7607,3.7631,3.7685,3.7685,3.7713,3.7703,3.7753,3.7706,3.7711,3.7704,3.7702,3.7705,3.7762,3.7764,3.7765,3.7766,0,3.7507,3.7503,3.7531,3.7559,3.7581,3.7602,3.762,3.7638,3.7627,3.7651,3.7685,3.7704,3.7741,3.7772,3.7798,3.7804,3.7784,3.7781,3.7793,3.7798,3.78,3.78,3.7646,3.7778,3.7776,3.7776,3.7775,3.7775,3.7591,3.7621,3.7637,3.7669,3.7682,3.77,3.7728,3.7731,3.7759,3.7789,3.778,3.7819,3.7834,3.7866,3.7876,3.7906,3.7887,3.7904,3.7908,3.7912,3.7918,3.7796,3.7911,3.791,3.791,3.791,3.7909,0,3.7704,3.7713,3.7743,3.777,3.7796,3.7775,3.7795,3.7818,3.7852,3.7868,3.7893,3.7933,3.7963,3.7967,3.7996,3.8019,3.8011,3.8027,3.8025,3.8027,3.7933,3.792,3.8034,3.8034,3.8034,3.8034,3.8034,3.8034,3.7766,3.7817,3.7816,3.7873,3.7881,3.792,3.7933,3.795,3.7963,3.8008,3.8034,3.8037,3.8048,3.8078,3.8105,3.8105,3.8117,3.8137,3.8134,3.8046,3.8034,3.8022,3.8009,3.814,3.814,3.8226,3.8226,3.8227]},{"header":{"parameterUnit":"m.s-1","parameterCategory":1,"la1":30.2991,"la2":30.254,"lo1":-89.0895,"lo2":-89.0444,"dy":0.0017,"dx":0.0017,"nx":28,"ny":28,"refTime":"2026-01-31T09:00:00:Z","depth":0,"parameterNumber":3,"parameterNumberName":"V-component_of_WINDS"},"data":[0,0,0,0,0,0,0,0,0,0,0,0,0,0,0,0,0,0,0,0,0,0,0,0,0,0,0,0,0,0,0,0,0,0,0,0,0,0,0,0,0,0,0,0,0,0,0,0,0,0,0,0,0,0,0,0,0,0,-8.7385,-8.7388,0,-8.7627,-8.763,-8.7633,-8.7597,-8.7592,-8.7588,-8.7585,-8.7829,-8.7839,-8.7849,0,0,0,0,0,0,0,0,0,0,0,0,0,-8.689,-8.6899,-8.7385,-8.7388,-8.7391,-8.7627,-8.763,-8.7633,-8.7597,-8.7592,-8.7587,-8.7583,-8.7826,-8.7838,-8.785,0,0,0,0,0,0,0,0,0,0,0,0,0,-8.7115,-8.6902,-8.7384,-8.7402,-8.7406,-8.7626,-8.763,-8.7634,-8.7598,-8.7592,-8.7586,-8.758,-8.7822,-8.7837,-8.7852,-8.807,0,0,-8.7899,-8.7906,0,0,0,0,0,0,0,0,-8.7103,-8.7134,-8.7396,-8.7401,-8.7406,-8.7575,-8.7545,-8.778,-8.76,-8.7525,-8.7584,-8.7577,-8.7749,-8.777,-8.7829,-8.8081,-8.8092,-8.79,-8.791,-8.7916,-8.7921,0,0,0,0,0,0,0,-8.7087,-8.7123,-8.7481,-8.74,-8.7406,-8.7396,-8.7422,-8.7589,-8.7668,-8.7531,-8.7529,-8.7558,-8.7751,-8.7814,-8.7834,-8.8095,-8.79,-8.7914,-8.7923,-8.7929,-8.8539,-8.8546,0,0,0,0,0,0,-8.7067,-8.711,-8.7473,-8.7488,-8.7236,-8.741,-8.7439,-8.7527,-8.7667,-8.7682,-8.7563,-8.7556,-8.7791,-8.7816,-8.7843,-8.8108,-8.7916,-8.7931,-8.794,-8.8532,-8.8541,-8.8548,0,0,0,0,0,0,-8.7057,-8.71,-8.7463,-8.7299,-8.7344,-8.7425,-8.7525,-8.7535,-8.7599,-8.7691,-8.7705,-8.7614,-8.7787,-8.7821,-8.8014,-8.8116,-8.7938,-8.7952,-8.8524,-8.8535,-8.8544,-8.864,0,0,0,0,0,0,-8.7042,-8.7096,-8.718,-8.7301,-8.7353,-8.7631,-8.7531,-8.7544,-8.7626,-8.7618,-8.7742,-8.7757,-8.7785,-8.7991,-8.8029,-8.8134,-8.7964,-8.8515,-8.8529,-8.8541,-8.8628,-8.8652,-8.8673,0,0,0,0,0,-8.7025,-8.7197,-8.7185,-8.7229,-8.746,-8.7637,-8.7667,-8.7697,-8.7634,-8.7719,-8.7779,-8.7753,-8.8099,-8.8011,-8.8054,-8.8165,-8.8509,-8.8525,-8.854,-8.8618,-8.8647,-8.8672,0,0,0,0,0,0,-8.7084,-8.7213,-8.7201,-8.7417,-8.7517,-8.7631,-8.7739,-8.7727,-8.7846,-8.7834,-8.7865,-8.7893,-8.8089,-8.8146,-8.8046,-8.8383,-8.8295,-8.832,-8.8339,-8.8368,-8.839,-8.8373,-8.7977,0,0,0,0,0,-8.7123,-8.7257,-8.7361,-8.7542,-8.7592,-8.7657,-8.7736,-8.775,-8.7854,-8.7896,-8.7969,-8.8071,-8.8202,-8.8288,-8.8414,-8.8636,-8.8662,-8.8733,-8.8755,-8.8773,-8.8795,-8.8917,-8.895,-8.8599,-8.8599,-8.8599,0,0,-8.7203,-8.729,-8.7372,-8.7556,-8.7635,-8.7773,-8.7693,-8.7841,-8.7944,-8.7918,-8.8105,-8.8163,-8.8278,-8.8486,-8.8582,-8.854,-8.8897,-8.8793,-8.8807,-8.8819,-8.8936,-8.8969,-8.8999,-8.861,-8.8608,-8.8606,0,0,-8.7421,-8.7499,-8.7659,-8.774,-8.7862,-8.7904,-8.7942,-8.8059,-8.8097,-8.8285,-8.8269,-8.8391,-8.8616,-8.87,-8.8771,-8.9021,-8.9002,-8.9061,-8.9179,-8.9298,-8.9325,-8.935,-8.944,-8.9472,-8.9082,-8.9082,-8.9082,0,-8.7505,-8.7713,-8.7742,-8.7894,-8.7975,-8.7959,-8.8121,-8.8198,-8.8354,-8.841,-8.8361,-8.8645,-8.8721,-8.895,-8.9011,-8.9069,-8.9114,-8.9047,-8.9319,-8.9344,-8.9368,-8.9454,-8.9487,-8.9089,-8.9088,-8.9087,-8.9087,0,-8.7811,-8.7955,-8.8069,-8.8222,-8.8316,-8.8472,-8.8524,-8.8616,-8.8623,-8.867,-8.8862,-8.8953,-8.9098,-8.9153,-8.916,-8.9383,-8.9354,-8.9312,-8.9224,-8.9407,-8.9489,-8.9522,-8.9098,-8.9096,-8.9094,-8.9092,0,0,-8.8072,-8.824,-8.8282,-8.8351,-8.8484,-8.8596,-8.8751,-8.8894,-8.8972,-8.908,-8.9211,-8.9403,-8.9366,-8.9447,-8.9464,-8.9568,-8.9761,-8.9513,-8.9516,-8.9557,-9.0013,-9.0044,-9.0082,-8.9749,-8.9756,-8.9761,-9.0004,0,-8.8303,-8.8578,-8.861,-8.8854,-8.8988,-8.8976,-8.9111,-8.9207,-8.9255,-8.9375,-8.9428,-8.9564,-8.9504,-8.9554,-8.9656,-8.9716,-8.9853,-8.9699,-8.9871,-8.9877,-8.9843,-9.0124,-9.0158,-9.0383,-9.0035,-9.0041,-9.0045,0,-8.8608,-8.8727,-8.8986,-8.9102,-8.9159,-8.928,-8.9414,-8.9529,-8.9638,-8.9665,-8.9758,-8.9761,-8.992,-8.9826,-9.0046,-8.994,-9.0012,-9.0052,-9.0062,-9.0079,-8.9972,-9.015,-9.0455,-9.0489,-9.0095,-9.0091,-9.0087,0,-8.8774,-8.8998,-8.9182,-8.9242,-8.9381,-8.9467,-8.9529,-8.9631,-8.9716,-8.9833,-8.9888,-9.0021,-9.0094,-9.0197,-9.0236,-9.0164,-9.0455,-9.0363,-9.0483,-9.0482,-9.0545,-9.0541,-9.0866,-9.059,-9.059,-9.0589,-9.0588,0,-8.9029,-8.9188,-8.9259,-8.9372,-8.955,-8.9585,-8.9759,-8.9817,-8.9909,-9.0033,-9.003,-9.0146,-9.019,-9.0314,-9.0345,-9.0523,-9.0556,-9.0583,-9.0589,-9.0584,-9.0581,-9.0632,-9.0618,-9.0598,-9.0596,-9.0594,-9.0593,0,-8.9244,-8.9298,-8.9498,-8.9614,-8.9647,-8.9773,-8.9872,-8.9982,-9.0029,-9.0186,-9.0224,-9.0298,-9.0444,-9.0493,-9.0668,-9.0689,-9.0897,-9.089,-9.0861,-9.0862,-9.0979,-9.0968,-9.135,-9.1402,-9.1091,-9.1094,-9.1097,0,-8.9403,-8.9526,-8.9655,-8.9739,-8.9804,-8.9939,-9.0025,-9.0064,-9.0154,-9.0288,-9.0381,-9.0525,-9.0643,-9.0876,-9.0944,-9.1079,-9.1075,-9.12,-9.1095,-9.1086,-9.1078,-9.1071,-9.1083,-9.1219,-9.1222,-9.1225,-9.1227,0,-8.9681,-8.9702,-8.9827,-8.9963,-9.0067,-9.0175,-9.0279,-9.0348,-9.0402,-9.0503,-9.0653,-9.0744,-9.0924,-9.1068,-9.1205,-9.1268,-9.1258,-9.126,-9.1295,-9.1291,-9.1269,-9.1283,-9.0915,-9.1251,-9.1248,-9.1247,-9.1245,-9.1245,-8.9874,-8.9982,-9.0091,-9.0231,-9.0314,-9.0412,-9.0521,-9.0583,-9.0708,-9.0859,-9.0874,-9.1035,-9.1141,-9.1325,-9.1394,-9.152,-9.1485,-9.1535,-9.1548,-9.156,-9.157,-9.1249,-9.1545,-9.1544,-9.1544,-9.1543,-9.1543,0,-9.0151,-9.0221,-9.035,-9.0497,-9.0608,-9.0589,-9.0704,-9.0797,-9.094,-9.104,-9.1156,-9.1328,-9.1468,-9.1548,-9.1688,-9.1773,-9.1772,-9.1809,-9.1803,-9.1818,-9.1593,-9.1549,-9.1807,-9.1807,-9.1807,-9.1807,-9.1807,-9.1807,-9.0309,-9.0492,-9.0526,-9.0751,-9.0819,-9.0978,-9.1046,-9.1136,-9.1216,-9.1409,-9.1526,-9.1577,-9.167,-9.1816,-9.1944,-9.1963,-9.2015,-9.2056,-9.2072,-9.1861,-9.1833,-9.1808,-9.1767,-9.2067,-9.2067,-9.2287,-9.2289,-9.2291]}]]